Theta_e
335 333 332 331 328 327 329 318 310 308 307 307 307 307 308 308 308 310 309 307 306 306 307 307 306 306 306 306 307 307 308 308 307 309 310 310 310 309 309 306 307 310 313
328 327 321 313 311 310 310 309 307 307 306 307 307 308 309 310 309 307 306 306 306 306 306 307 307 307 307 308 308 309 309 309 308 308 310 311 310 310 309 308 308 306 311
315 313 312 311 309 308 306 305 305 306 307 308 309 309 309 308 306 305 305 305 305 306 308 309 308 308 309 309 309 309 310 309 309 310 310 310 311 310 309 308 308 308 306
312 310 309 307 306 306 306 307 307 308 309 309 309 309 308 306 305 305 305 306 307 309 310 310 309 309 310 310 310 310 310 310 309 308 308 307 308 308 307 306 307 307 307
312 310 307 306 306 307 308 309 309 309 308 308 307 306 306 306 306 308 310 311 310 311 311 311 310 311 310 311 310 309 308 307 307 306 307 306 306 306 306 305 305 305 306
309 307 307 307 308 309 310 309 308 308 308 308 307 306 306 308 309 311 312 313 312 313 313 313 312 311 311 310 309 309 308 307 305 305 305 305 305 304 305 304 305 305 306
306 306 306 309 309 310 309 308 307 307 307 306 306 306 308 309 311 312 313 314 314 314 313 311 312 311 310 309 309 310 310 309 308 307 305 304 304 303 303 304 304 304 305
305 306 309 310 310 309 307 306 307 306 306 307 307 308 308 311 313 313 313 314 314 313 312 312 312 312 312 311 311 311 311 310 309 308 306 305 304 303 303 303 303 303 304
306 308 309 309 308 306 305 306 306 308 308 308 308 308 310 311 313 314 314 315 314 314 312 312 312 312 311 309 310 310 310 311 311 309 307 305 304 304 303 303 303 302 303
309 309 309 308 307 304 305 307 307 308 308 308 309 309 310 311 313 314 314 314 314 313 313 313 313 313 311 310 310 311 312 311 311 310 309 307 305 304 304 303 304 304 304
309 309 308 307 305 305 306 306 307 308 308 308 308 310 311 311 313 314 313 313 313 312 312 312 311 310 312 311 310 310 311 312 312 311 310 309 308 306 306 306 305 305 305
309 308 306 306 306 305 306 306 306 305 307 308 308 310 311 311 311 312 311 311 311 310 310 309 309 309 311 312 311 310 312 313 314 312 311 310 308 309 306 307 306 306 306
308 307 305 306 306 306 306 306 305 306 308 311 311 312 311 311 311 311 310 311 310 310 309 309 308 308 309 310 311 310 311 313 313 313 312 311 308 308 307 307 307 307 307
307 307 306 305 305 306 306 305 305 305 308 310 311 311 311 311 312 312 311 310 310 310 310 309 308 307 306 308 310 311 311 312 312 312 312 313 312 309 309 309 308 309 309
307 306 305 305 304 305 305 305 305 305 306 309 310 311 311 312 312 311 311 310 310 310 309 310 307 305 304 306 308 310 310 312 312 312 312 312 314 313 313 312 311 311 310
307 306 305 304 305 305 305 305 304 304 305 306 307 308 310 309 310 309 309 309 309 309 308 305 301 297 297 301 306 309 309 310 311 312 312 313 313 314 313 312 312 312 311
307 305 304 304 305 304 304 304 304 304 304 304 306 307 306 308 307 307 306 306 307 304 303 297 294 293 294 297 302 306 306 307 309 311 311 312 312 314 313 313 313 313 312
304 304 304 303 304 304 303 303 303 303 303 304 305 308 306 304 305 304 304 304 304 299 294 292 292 292 293 295 297 301 303 305 307 309 311 312 312 313 313 313 313 312 313
303 304 304 304 304 303 303 303 302 304 304 305 306 306 303 301 301 303 302 301 296 292 291 291 291 291 292 293 294 296 297 300 302 307 309 309 310 310 312 313 313 313 313
303 303 303 304 303 303 302 302 303 305 305 304 302 301 300 299 300 299 298 296 294 291 291 290 290 290 291 291 292 293 294 296 298 303 306 308 307 308 309 311 311 311 313
302 302 303 302 302 302 301 302 304 304 303 301 299 299 298 298 297 297 296 295 293 291 290 290 290 290 290 290 291 291 292 294 296 298 297 301 305 304 306 308 310 311 311
302 301 301 301 301 300 301 302 303 301 300 299 298 297 297 296 296 295 295 294 293 291 289 289 290 290 290 290 290 290 291 293 295 296 295 296 298 300 303 304 305 308 310
300 300 300 299 299 299 299 302 302 300 299 298 297 296 296 295 295 294 294 293 293 291 289 289 289 289 289 289 290 290 290 292 295 296 295 295 296 298 298 298 298 302 306
300 300 299 298 298 300 301 301 298 296 296 296 295 295 295 294 294 293 293 293 291 290 289 289 289 289 289 289 289 289 290 291 294 295 295 294 294 296 296 295 295 296 299
299 299 299 299 300 297 297 297 296 295 295 294 294 294 294 293 293 292 292 292 290 289 289 288 288 288 289 289 289 289 289 289 292 294 294 294 293 294 295 295 294 294 295
299 299 299 298 296 295 295 295 294 294 294 294 294 293 293 292 292 291 291 291 289 288 288 288 288 288 288 288 288 288 289 289 289 291 293 293 293 292 294 294 293 293 293
Wind_Speed
13 11 8 7 5 3 3 3 4 5 6 8 10 12 15 16 17 18 16 15 15 14 14 15 16 16 16 16 16 20 21 23 30 33 32 31 29 28 27 24 23 23 18
11 11 11 9 7 5 4 5 6 8 9 10 11 12 14 16 16 16 15 14 15 16 17 18 19 19 17 19 21 23 27 29 33 41 40 39 34 31 26 26 26 23 19
15 13 11 8 5 5 7 8 9 9 9 10 11 13 14 16 16 14 14 16 16 15 15 17 18 19 21 26 28 30 32 34 35 39 41 37 38 36 33 27 25 25 18
13 11 9 8 8 9 10 10 10 9 9 11 11 12 13 12 14 14 14 14 12 13 14 15 16 18 24 27 27 29 32 33 34 36 39 39 38 37 34 31 29 24 26
10 9 9 10 11 11 13 13 11 9 9 11 13 12 10 12 15 16 17 16 13 13 13 15 16 19 23 23 26 29 30 30 31 33 35 37 37 34 32 30 28 27 23
9 9 8 9 11 12 13 12 9 8 9 11 12 12 11 14 17 18 17 16 15 14 15 16 18 20 23 23 25 23 26 31 33 32 35 36 37 34 28 26 25 21 17
8 7 8 9 10 11 11 9 8 8 8 9 10 11 13 15 17 16 15 14 13 15 18 19 19 23 24 25 24 26 26 29 30 34 36 33 32 29 24 20 20 18 20
8 6 6 8 9 9 8 8 7 6 8 10 10 11 13 14 15 16 14 12 13 16 18 19 22 23 26 27 28 28 28 30 29 34 35 34 28 26 21 18 14 16 13
6 4 6 7 8 8 8 9 13 13 10 9 7 9 12 13 14 15 12 11 14 16 16 19 21 23 27 27 28 31 30 29 29 28 31 32 31 26 20 17 12 12 12
6 5 5 6 9 10 12 14 9 6 6 3 6 9 11 12 12 13 14 14 16 16 18 19 20 21 25 25 29 32 34 32 35 27 29 28 28 28 27 18 16 15 14
6 5 5 6 10 12 14 10 6 6 5 2 5 8 10 13 13 12 14 16 18 18 19 20 20 21 22 24 26 28 30 29 32 27 29 26 27 23 20 19 16 16 16
4 5 5 7 9 11 9 6 5 6 3 3 2 4 8 10 12 12 13 15 15 16 17 17 17 17 18 21 25 25 27 30 33 31 30 28 30 26 24 19 19 18 16
4 7 7 6 7 5 4 5 6 7 5 5 4 4 6 7 9 11 13 12 11 13 16 18 17 17 17 17 19 22 26 30 31 35 33 26 25 23 22 20 16 18 14
5 5 7 7 7 4 2 4 7 7 5 4 3 3 4 5 6 11 13 14 13 13 16 20 20 21 21 19 16 19 23 29 31 32 32 34 23 22 24 23 19 22 19
6 4 4 5 6 6 1 3 6 7 5 3 2 2 3 5 9 13 13 14 16 18 19 21 22 24 24 23 21 18 20 24 26 28 31 32 36 32 27 24 24 24 17
5 4 5 7 8 2 1 3 6 8 8 4 5 3 5 9 11 10 11 13 16 19 20 23 25 26 26 25 24 20 19 22 26 25 28 29 32 34 29 24 24 24 20
6 5 5 9 8 2 0 2 5 7 8 5 4 6 5 7 8 8 9 12 16 17 21 23 24 24 23 23 23 22 22 22 21 23 26 28 30 33 34 31 28 18 21
7 8 7 5 6 3 2 4 6 7 5 6 6 5 7 8 6 6 7 10 15 20 22 23 24 23 22 22 23 22 22 21 21 20 22 24 27 29 30 31 32 25 20
9 10 7 4 2 3 4 5 6 1 2 3 5 6 10 8 7 7 11 15 17 19 20 21 22 23 23 22 22 22 23 23 23 19 20 22 23 26 28 26 28 27 24
9 12 7 5 2 4 6 6 0 2 6 8 10 12 11 8 6 8 13 16 16 17 17 19 21 22 24 23 23 24 24 24 24 22 18 19 21 23 23 25 25 24 23
12 11 8 7 7 8 7 4 5 7 12 14 13 12 10 8 8 8 11 14 15 15 17 18 20 22 23 24 24 25 25 25 24 23 24 21 19 22 20 20 21 23 21
8 9 9 9 8 3 5 7 8 11 13 13 11 10 9 7 6 6 10 12 13 13 15 16 18 21 23 25 25 26 27 25 24 24 26 24 24 21 20 20 20 19 20
11 10 8 8 3 3 7 8 9 12 11 11 10 8 6 4 3 3 6 10 11 11 14 15 16 18 21 23 25 27 27 26 23 24 24 26 24 22 23 24 23 20 16
12 11 9 7 6 6 8 10 19 17 14 11 10 7 5 4 3 0 4 8 10 11 12 14 16 18 19 21 23 24 24 22 19 20 20 24 23 22 25 27 27 23 20
12 12 11 8 10 14 16 18 17 14 14 13 9 5 3 4 5 4 5 7 9 10 12 14 16 17 19 19 20 21 22 21 18 17 18 21 23 20 23 25 29 29 25
12 10 10 15 18 18 18 17 17 15 12 9 7 7 6 6 5 6 6 6 7 9 10 12 14 15 16 17 19 20 20 20 19 16 16 18 22 21 21 23 25 28 28
Wind_Direction
152 142 142 132 113 71 330 349 353 354 337 324 329 333 339 339 339 342 347 349 348 350 351 354 352 350 350 349 349 348 345 342 331 326 328 332 335 339 343 327 304 295 298
128 122 107 99 85 60 28 1 350 347 347 341 339 338 343 350 356 1 8 9 7 2 1 3 4 2 4 356 352 347 342 338 330 325 331 332 332 333 334 331 342 313 287
109 99 89 71 45 23 13 6 2 356 349 354 353 359 5 6 9 12 13 9 6 7 8 13 7 5 360 356 354 349 344 336 333 328 327 329 330 331 333 333 334 337 322
101 89 75 55 38 30 20 15 13 7 7 12 7 2 7 19 15 16 10 6 5 4 7 7 7 360 359 356 352 346 341 338 333 329 326 320 324 328 325 324 328 332 336
86 71 54 43 33 25 19 15 23 32 35 28 27 32 36 25 21 13 8 2 358 1 8 8 7 3 3 353 350 349 348 350 349 341 336 331 327 325 324 323 321 326 332
66 57 46 29 25 20 21 24 32 39 40 34 33 37 34 28 17 17 18 23 23 24 23 19 12 11 7 8 6 1 5 3 356 349 341 333 329 326 325 320 320 326 324
72 56 37 31 21 19 13 17 39 55 43 35 42 38 36 19 23 20 23 23 31 31 22 24 19 15 7 8 14 13 12 14 10 0 349 346 334 330 317 310 312 316 318
61 53 42 22 19 17 20 55 57 54 68 75 66 42 21 16 33 34 36 34 38 27 26 23 25 18 10 8 7 10 7 2 5 11 4 358 350 345 336 324 310 324 330
76 74 42 34 31 32 66 72 87 94 96 81 65 39 26 25 36 39 40 45 40 36 34 32 25 18 19 12 9 12 13 6 5 10 15 13 15 6 359 5 27 13 7
89 58 51 50 42 75 89 100 85 83 86 70 74 43 31 21 39 49 49 40 50 52 42 36 26 20 13 15 22 18 11 8 9 10 15 19 16 22 29 25 20 17 360
80 57 75 60 63 91 101 110 79 80 82 53 3 23 23 34 47 44 41 41 42 38 34 31 25 20 16 16 22 22 17 14 11 15 15 11 17 9 11 12 359 349 340
78 79 82 78 84 85 95 79 42 17 18 22 30 35 37 41 49 46 34 31 30 28 25 20 14 7 7 11 20 20 17 24 21 23 16 17 17 12 15 8 5 360 347
107 88 93 98 106 94 80 55 14 27 48 81 93 84 65 56 44 37 32 20 16 19 12 8 7 3 3 9 20 17 18 19 25 28 26 23 18 18 16 16 17 5 4
120 101 85 88 143 148 107 50 12 25 39 69 91 84 54 48 40 32 24 20 16 6 4 4 4 4 8 13 16 22 21 22 26 24 26 27 18 17 19 20 18 21 34
133 113 75 92 142 154 124 1 0 10 14 35 39 62 42 23 26 23 14 11 3 359 354 353 0 6 7 10 19 24 24 21 27 31 31 31 32 29 17 16 23 27 30
150 114 105 130 143 123 48 348 343 354 0 43 20 17 29 28 25 22 17 359 350 348 349 1 7 11 13 14 15 23 28 22 26 28 30 28 33 33 27 23 23 24 27
181 148 130 152 166 159 208 306 320 330 349 35 55 34 43 33 40 41 25 2 353 354 5 11 15 17 20 21 21 23 25 24 25 27 28 33 38 42 38 22 21 26 29
183 170 146 146 177 173 227 277 310 334 2 2 39 41 80 65 48 50 26 0 7 12 17 20 22 23 25 26 25 25 26 23 23 25 29 35 34 38 33 31 27 24 25
168 170 171 169 134 202 256 289 321 358 53 75 67 74 97 82 60 25 19 18 22 26 27 28 29 29 29 28 27 27 27 25 23 25 23 28 35 32 31 38 35 30 31
167 174 183 189 235 260 279 308 106 137 129 124 107 104 101 99 65 30 28 27 29 34 32 29 29 30 30 29 28 27 28 26 26 29 26 18 26 31 27 33 34 28 34
161 185 200 213 246 273 290 148 142 136 126 124 118 114 104 85 62 27 27 26 28 32 33 28 27 27 28 28 27 28 28 27 27 29 28 27 18 19 19 24 26 27 26
177 193 219 245 250 249 153 156 147 135 127 124 117 111 105 93 71 30 20 22 26 26 30 29 28 26 24 24 26 26 26 26 26 28 26 26 28 21 20 16 17 17 14
196 210 224 232 221 138 154 166 148 144 139 132 120 117 121 118 99 34 15 14 17 24 26 29 32 32 29 26 25 25 24 24 24 24 24 27 28 24 24 19 16 14 14
203 221 232 205 150 147 161 154 139 134 133 134 140 149 157 157 158 110 347 358 11 25 27 29 33 32 31 30 29 26 24 25 25 23 21 27 30 28 30 27 28 25 21
215 230 232 180 161 151 143 143 145 149 154 163 167 182 200 199 229 267 313 350 6 23 29 30 32 32 32 31 29 28 27 22 21 19 18 21 28 33 35 29 30 32 29
217 220 193 166 158 157 153 155 157 161 168 177 196 213 230 243 246 272 302 331 10 29 32 35 37 35 33 33 31 29 27 24 24 19 16 15 20 28 39 32 28 34 32